Location: Unspecified
(51.0950°N, 12.9690°E)
Time: 15:11:26
(UTC+00:00)

Cosmos 2360 Rocket - Pass Details

Date: 28 October 2021
Orbit: 832 x 846 km, 71.0° (Epoch: 27 November)

Event Time Altitude Azimuth Distance (km) Brightness Sun altitude
Rises 17:11:39 0° 198° (SSW) 3,379 5.6 -13.4°
Reaches altitude 10° 17:14:05 10° 195° (SSW) 2,451 4.9 -13.8°
Maximum altitude 17:19:39 66° 114° (ESE) 918 2.2 -14.7°
Drops below altitude 10° 17:25:17 10° 34° (NE) 2,476 4.3 -15.6°
Enters shadow 17:26:22 - 33° (NNE) 2,886 4.6 -15.7°
